Regional Weather Roundup
Issued by NWS Northern Indiana

Home | Current Version | Previous Version | Text Only | Print | Product List | Glossary On
Versions: 1 2 3 4 5 6 7 8 9 10 11 12 13 14 15 16 17 18 19 20 21 22 23 24 25 26 27 28 29 30 31 32 33 34 35 36 37 38 39 40 41 42 43 44 45 46 47 48 49 50
000
ASUS43 KIWX 240900
RWRIWX

KIWX WEATHER ROUNDUP
NATIONAL WEATHER SERVICE NORTHERN INDIANA
400 AM EST SAT FEB 24 2018

NOTE: "FAIR" INDICATES FEW OR NO CLOUDS BELOW 12,000 FEET WITH NO
SIGNIFICANT WEATHER AND/OR OBSTRUCTIONS TO VISIBILITY.

* THESE STATIONS ARE NOT UNDER NWS QUALITY CONTROL. THEY ALSO MAY NOT
  REPORT WEATHER SUCH AS PRECIPITATION OR FOG.

INZ001>027-241000-
NORTHERN INDIANA

CITY           SKY/WX    TMP DP  RH WIND       PRES   REMARKS
MICHIGAN CITY* MOCLDY    34  32  93 N3        30.23S
SOUTH BEND     CLOUDY    35  29  78 NE7       30.22F WCI  29
GOSHEN         CLOUDY    36  32  85 E3        30.23S
MONTICELLO*    DRIZZLE   37  35  94 NE5       30.22F
WARSAW*        CLOUDY    36  32  87 N6        30.23R
AUBURN*        CLOUDY    36  34  93 N3        30.23R
FORT WAYNE     LGT RAIN  39  37  92 N6        30.23S FOG
PERU/GRISSOM   LGT RAIN  38  38 100 NE3       30.19F FOG

$$
INZ028>050-241000-
CENTRAL INDIANA

CITY           SKY/WX    TMP DP  RH WIND       PRES   REMARKS
LAFAYETTE      LGT RAIN  37  36  96 NE7       30.19F
KOKOMO*        LGT RAIN  39  38  96 N9        30.20F FOG
MUNCIE*        LGT RAIN  42  40  92 NE5       30.19S
INDIANAPOLIS   LGT RAIN  42  41  96 N9        30.16F

$$
MIZ043>046-050>051-056>058-064>065-071>073-077>080-241000-
SOUTHWEST LOWER MICHIGAN

CITY           SKY/WX    TMP DP  RH WIND       PRES   REMARKS
BATTLE CREEK   CLOUDY    35  29  78 N6        30.23S WCI  30
BENTON HARBOR  FAIR      35  29  78 VRB3      30.23R
COLDWATER*     CLOUDY    36  34  93 NE6       30.22R
HILLSDALE*     CLOUDY    34  32  93 N5        30.21S WCI  30
HOLLAND        FAIR      34  27  75 N7        30.23F WCI  28
GRAND RAPIDS   CLOUDY    34  28  79 N7        30.22F WCI  28
KALAMAZOO      CLOUDY    36  29  75 N7        30.23S
STURGIS*       CLOUDY    36  32  85 NE6       30.21S
THREE RIVERS*  CLOUDY    36  32  84 CALM      30.23R

$$
OHZ001>008-015>018-024>025-241000-
NORTHWEST OHIO

CITY           SKY/WX    TMP DP  RH WIND       PRES   REMARKS
DEFIANCE       CLOUDY    38  35  89 N5        30.23F
FINDLAY        LGT RAIN  42  37  82 N5        30.21F
TOLEDO EXPRESS CLOUDY    39  36  89 N8        30.23S
TOLEDO METCALF CLOUDY    40  35  83 N6        30.24S
LIMA           LGT RAIN  42  41  96 N10       30.19F

$$
AND FOR LAKE MICHIGAN COASTAL AND OPEN LAKE BUOY OBSERVATIONS

STATION/POSITION TEMP    WIND        PRES    VSBY  WAVE
                 AIR SEA DIR/SP/G                  HT/PER
                 (F)     (DEG/KT/KT) (MB)    (MI)  (FT/S)
CALUMET HARBOR    34     350/  6/  9 1023.3S
MICHIGAN CITY     33      20/  4/  5   N/A
BURNS HARBOR      34      20/  8/  9 1024.0F
SAINT JOSEPH      36      40/  4/  8 1024.4

$$
&&




USA.gov is the U.S. government's official web portal to all federal, state and local government web resources and services.